Location: Alpine Heights
(32.8181°N, 116.7809°W)
Time: 00:45:57
(UTC+00:00)

Cosmos 2298 Rocket - Pass Details

Date: 14 April 2021
Orbit: 777 x 783 km, 74.0° (Epoch: 15 May)

Event Time Altitude Azimuth Distance (km) Brightness Sun altitude
Exits shadow 12:11:33 - 190° (S) 3,277 7.0 -14.2°
Rises 12:11:37 0° 190° (S) 3,249 6.9 -14.2°
Reaches altitude 10° 12:14:00 10° 189° (S) 2,324 6.2 -13.8°
Maximum altitude 12:19:16 74° 105° (ESE) 811 4.2 -12.7°
Drops below altitude 10° 12:24:33 10° 21° (NNE) 2,334 7.1 -11.7°
Sets 12:26:57 0° 19° (NNE) 3,264 7.9 -11.2°
